Temp
3 3 3 3 3 4 4 4 4 3 2 1 2 4 4 4 4 5 5 4 3 3 2 2 1 1 1 1 1 0 1 1 0 0 -0 -0 -2 -2 0 -0 -0 0 1
2 2 2 3 2 3 3 4 4 3 3 1 2 3 4 4 4 5 4 3 2 2 1 1 1 1 2 1 1 1 1 1 0 -0 -0 -1 -2 -1 -1 -1 -0 0 0
1 1 2 3 2 2 2 2 2 2 3 2 2 3 3 4 5 4 4 3 3 1 0 0 1 1 1 1 1 1 1 0 0 -0 -0 -1 -2 -2 -1 -1 -1 -0 -1
1 0 1 1 1 1 1 2 2 2 2 2 3 3 4 4 5 4 4 3 3 0 1 1 1 0 0 1 1 1 1 0 -0 -0 -0 -1 -2 -2 -1 -1 -1 -1 -1
-0 0 1 1 1 1 0 0 1 1 2 2 2 3 3 4 4 4 3 3 2 1 0 0 0 1 1 1 1 1 0 0 -0 -0 -0 -1 -1 -1 -1 -1 -1 -1 -1
-0 -1 -0 -0 0 0 -0 -0 1 0 1 1 2 3 3 4 3 3 3 3 2 1 1 1 0 0 0 1 1 0 -0 0 -0 -0 -0 -0 -0 -1 -1 -1 -1 -1 -1
-1 -1 -0 -0 -0 -0 -0 0 -0 0 1 1 1 3 4 4 3 3 3 3 2 0 1 1 0 0 -0 -0 0 -0 0 -1 -1 -1 -0 -1 -1 -1 -1 -1 -1 -1 -1
-2 -2 -1 -1 -0 -1 -1 -0 -1 -0 0 1 1 1 2 2 3 2 3 3 2 0 1 1 -0 0 -0 0 -0 0 -0 -0 -1 -0 -1 -1 -1 -1 -1 -1 -1 -1 -1
-3 -2 -2 -2 -1 -1 -1 -1 -1 0 0 0 0 -0 1 1 2 1 1 1 1 0 0 0 -0 0 0 -0 -1 -0 -0 -1 -1 -1 -1 -1 -1 -1 -1 -1 -2 -1 -2
-4 -3 -3 -3 -2 -2 -2 -2 -1 -1 -0 0 -0 -0 -0 -0 0 -1 -0 0 -0 -1 -0 0 0 -1 -1 -0 -0 -0 -0 -0 -0 -1 -1 -1 -1 -1 -1 -2 -1 -2 -2
-5 -5 -4 -4 -4 -3 -2 -2 -2 -2 -1 -1 -0 0 -0 -0 -1 -1 -1 -1 -0 -0 -1 -1 -1 -1 -0 -0 -0 -0 -0 -1 -1 -1 -1 -1 -1 -1 -1 -2 -2 -2 -2
-6 -6 -6 -5 -5 -4 -4 -3 -3 -3 -2 -2 -2 -1 -1 -2 -1 -1 -1 -1 -1 -1 -2 -2 -2 -2 -1 -1 -1 -1 -1 -1 -1 -1 -1 -1 -2 -2 -2 -1 -2 -3 -3
-7 -6 -6 -6 -6 -6 -5 -5 -5 -5 -5 -4 -3 -3 -3 -3 -3 -3 -2 -2 -2 -2 -2 -2 -2 -2 -2 -1 -1 -1 -1 -1 -2 -2 -2 -2 -2 -2 -2 -2 -3 -5 -6
-7 -7 -7 -7 -7 -7 -7 -6 -6 -6 -6 -6 -6 -6 -5 -5 -5 -5 -4 -4 -4 -4 -4 -3 -3 -3 -3 -3 -3 -2 -2 -3 -3 -3 -3 -4 -4 -5 -6 -7 -8 -8 -7
-8 -7 -7 -8 -8 -7 -7 -7 -7 -7 -7 -6 -7 -7 -7 -7 -7 -6 -6 -6 -6 -6 -6 -6 -6 -6 -6 -5 -6 -6 -6 -6 -6 -6 -6 -7 -7 -7 -8 -8 -8 -8 -8
-8 -8 -7 -8 -8 -8 -8 -8 -8 -8 -8 -8 -8 -8 -7 -7 -7 -8 -7 -7 -7 -7 -7 -7 -7 -7 -8 -8 -7 -7 -8 -8 -8 -8 -8 -8 -8 -8 -8 -8 -9 -10 -11
-8 -8 -8 -8 -8 -8 -8 -8 -8 -8 -8 -8 -8 -8 -8 -8 -8 -8 -8 -8 -8 -8 -8 -8 -8 -8 -8 -8 -8 -8 -8 -8 -8 -9 -9 -9 -10 -10 -10 -10 -11 -11 -10
-9 -9 -9 -9 -9 -9 -9 -9 -9 -9 -9 -9 -9 -9 -9 -9 -9 -9 -9 -9 -9 -9 -9 -9 -9 -9 -9 -9 -9 -10 -10 -10 -11 -12 -12 -12 -12 -11 -11 -10 -10 -10 -9
-10 -10 -10 -10 -10 -10 -10 -10 -10 -10 -10 -10 -10 -10 -10 -10 -10 -10 -10 -10 -11 -11 -11 -11 -12 -12 -12 -12 -12 -12 -12 -12 -12 -12 -12 -11 -11 -11 -11 -11 -11 -11 -11
-11 -11 -11 -12 -12 -12 -12 -12 -12 -12 -12 -12 -12 -12 -12 -12 -12 -12 -12 -13 -12 -12 -12 -13 -13 -13 -13 -12 -12 -12 -12 -12 -12 -12 -12 -12 -12 -12 -12 -12 -12 -12 -12
-12 -12 -13 -13 -13 -13 -13 -13 -13 -13 -13 -13 -13 -13 -13 -13 -13 -13 -13 -13 -13 -13 -13 -13 -13 -13 -13 -13 -13 -13 -13 -13 -13 -13 -13 -13 -13 -13 -13 -13 -13 -13 -14
-13 -13 -14 -14 -14 -14 -14 -14 -14 -15 -15 -15 -15 -15 -15 -15 -15 -15 -15 -15 -14 -14 -14 -14 -14 -14 -14 -14 -14 -14 -14 -14 -14 -14 -14 -14 -14 -14 -14 -15 -15 -15 -15
-14 -15 -15 -15 -15 -16 -16 -16 -16 -16 -16 -16 -16 -16 -16 -16 -16 -16 -16 -16 -16 -16 -15 -15 -15 -15 -15 -15 -15 -15 -15 -15 -15 -16 -16 -16 -16 -16 -16 -16 -17 -17 -17
-16 -16 -17 -17 -17 -17 -17 -17 -17 -17 -17 -17 -17 -17 -17 -17 -17 -17 -17 -17 -17 -17 -16 -16 -16 -16 -16 -16 -17 -17 -17 -17 -17 -17 -17 -17 -17 -18 -18 -18 -18 -18 -18
-17 -18 -18 -18 -18 -18 -19 -19 -19 -19 -19 -19 -19 -19 -19 -19 -19 -19 -19 -18 -18 -18 -18 -18 -18 -18 -18 -18 -18 -18 -18 -18 -19 -19 -19 -19 -19 -19 -19 -19 -19 -20 -20
-19 -19 -19 -19 -19 -20 -20 -20 -20 -20 -20 -20 -20 -20 -20 -20 -20 -20 -20 -20 -20 -20 -20 -20 -20 -20 -20 -20 -20 -20 -20 -20 -20 -20 -20 -20 -20 -20 -20 -20 -20 -21 -21
Height
2966 2969 2971 2975 2978 2980 2984 2989 2994 2999 3003 3004 3013 3018 3022 3026 3028 3029 3029 3029 3030 3033 3036 3038 3040 3042 3044 3046 3048 3051 3052 3052 3055 3060 3064 3067 3071 3079 3084 3087 3089 3093 3097
2961 2964 2966 2969 2972 2975 2979 2984 2989 2993 3000 3004 3006 3011 3015 3019 3022 3022 3021 3023 3025 3027 3029 3030 3031 3033 3033 3036 3038 3039 3043 3046 3050 3054 3057 3060 3067 3073 3078 3080 3082 3087 3091
2958 2961 2964 2966 2969 2972 2974 2979 2984 2987 2993 2996 3000 3005 3009 3013 3014 3015 3016 3017 3018 3019 3020 3020 3020 3021 3022 3025 3029 3032 3035 3040 3044 3048 3050 3054 3061 3066 3069 3073 3077 3081 3084
2954 2957 2958 2962 2966 2968 2970 2974 2977 2980 2986 2990 2994 2999 3003 3005 3007 3009 3010 3011 3011 3011 3012 3013 3011 3009 3012 3015 3020 3023 3028 3034 3037 3041 3045 3049 3054 3059 3064 3068 3071 3074 3076
2947 2951 2953 2956 2958 2959 2963 2967 2969 2975 2979 2984 2988 2993 2997 2999 3001 3004 3004 3005 3006 3006 3007 3007 3004 3006 3007 3010 3013 3016 3021 3025 3031 3035 3040 3043 3048 3052 3056 3060 3064 3066 3068
2945 2944 2947 2950 2953 2951 2952 2955 2954 2965 2972 2976 2982 2986 2990 2993 2994 2996 2998 2999 2999 3001 3001 3000 2997 3000 3001 3004 3008 3011 3015 3020 3024 3029 3034 3038 3043 3046 3050 3052 3055 3056 3058
2944 2942 2944 2944 2945 2945 2946 2948 2950 2950 2965 2971 2974 2978 2983 2987 2988 2989 2992 2994 2995 2996 2996 2995 2996 2995 2996 3000 3003 3007 3011 3016 3019 3025 3029 3033 3036 3039 3042 3044 3046 3048 3049
2943 2942 2943 2943 2942 2942 2940 2942 2948 2950 2957 2965 2968 2972 2976 2979 2983 2984 2986 2989 2990 2992 2992 2993 2993 2993 2994 2995 2998 3003 3007 3010 3014 3019 3022 3026 3028 3031 3034 3036 3039 3041 3042
2943 2942 2942 2942 2941 2940 2939 2942 2944 2947 2948 2957 2962 2967 2971 2974 2976 2979 2981 2983 2985 2988 2989 2989 2990 2992 2994 2995 2999 3001 3003 3008 3010 3012 3015 3019 3021 3024 3026 3029 3031 3034 3034
2944 2943 2942 2942 2941 2940 2939 2940 2942 2943 2945 2953 2958 2962 2965 2968 2971 2973 2975 2978 2979 2982 2984 2985 2986 2988 2990 2993 2996 2997 2999 3002 3005 3007 3010 3012 3014 3017 3019 3021 3023 3025 3026
2946 2944 2943 2942 2941 2942 2942 2942 2941 2943 2944 2948 2952 2956 2959 2963 2966 2968 2970 2971 2972 2974 2977 2979 2981 2982 2985 2987 2989 2991 2993 2995 2997 3000 3002 3004 3005 3007 3010 3012 3014 3014 3015
2948 2947 2946 2945 2944 2942 2943 2942 2943 2944 2945 2944 2948 2950 2954 2956 2959 2960 2961 2963 2965 2967 2969 2970 2972 2975 2978 2980 2982 2984 2985 2987 2989 2991 2993 2994 2995 2997 2999 3001 3000 3000 3001
2952 2950 2948 2947 2946 2945 2944 2944 2945 2945 2945 2945 2945 2947 2950 2951 2952 2951 2953 2955 2957 2959 2960 2963 2965 2967 2969 2971 2973 2974 2976 2977 2979 2982 2983 2983 2985 2986 2985 2987 2988 2989 2991
2955 2954 2952 2950 2948 2948 2948 2947 2946 2946 2946 2946 2947 2948 2948 2947 2947 2948 2948 2949 2951 2952 2953 2955 2956 2958 2960 2961 2963 2964 2966 2966 2967 2969 2971 2972 2972 2974 2975 2977 2980 2984 2986
2957 2956 2955 2954 2952 2951 2950 2949 2949 2949 2949 2948 2947 2947 2947 2946 2946 2946 2946 2946 2947 2949 2950 2951 2952 2953 2954 2954 2956 2958 2959 2961 2962 2963 2965 2966 2968 2969 2970 2972 2975 2977 2978
2959 2958 2956 2954 2953 2953 2952 2950 2949 2948 2948 2947 2948 2948 2947 2946 2945 2946 2945 2946 2946 2947 2948 2949 2950 2950 2951 2951 2950 2952 2954 2954 2955 2957 2958 2960 2962 2963 2964 2965 2967 2969 2972
2959 2958 2957 2955 2954 2952 2950 2949 2948 2947 2946 2945 2944 2944 2944 2944 2943 2943 2943 2943 2944 2944 2945 2946 2946 2947 2947 2948 2947 2947 2949 2950 2951 2952 2953 2955 2956 2957 2958 2960 2962 2963 2965
2957 2956 2956 2954 2953 2952 2950 2948 2947 2946 2944 2943 2942 2941 2941 2940 2939 2939 2939 2939 2939 2940 2941 2941 2941 2941 2941 2940 2940 2941 2942 2943 2945 2947 2949 2950 2951 2953 2954 2955 2955 2957 2957
2955 2953 2952 2951 2949 2948 2946 2945 2945 2943 2942 2941 2940 2939 2937 2936 2935 2935 2934 2935 2934 2936 2936 2936 2937 2937 2937 2936 2937 2937 2938 2940 2941 2943 2944 2945 2946 2947 2947 2948 2947 2947 2947
2952 2951 2949 2946 2944 2944 2942 2941 2940 2938 2937 2936 2935 2934 2933 2932 2930 2930 2930 2930 2929 2931 2930 2931 2932 2932 2932 2932 2932 2933 2933 2934 2936 2936 2937 2937 2938 2938 2938 2938 2938 2938 2938
2949 2946 2944 2942 2940 2938 2936 2934 2933 2932 2931 2930 2929 2928 2927 2926 2926 2927 2926 2925 2925 2925 2925 2925 2925 2924 2925 2925 2926 2926 2927 2927 2928 2928 2929 2929 2929 2929 2929 2929 2929 2928 2928
2942 2940 2938 2936 2933 2931 2929 2928 2926 2924 2923 2922 2922 2921 2921 2920 2920 2919 2919 2919 2919 2918 2918 2918 2917 2916 2916 2917 2917 2918 2918 2919 2919 2919 2920 2920 2920 2920 2920 2919 2919 2918 2918
2936 2933 2930 2927 2925 2923 2921 2920 2918 2917 2915 2914 2913 2912 2912 2911 2911 2911 2910 2910 2910 2910 2909 2909 2908 2908 2908 2908 2909 2910 2910 2910 2911 2911 2911 2911 2911 2911 2911 2910 2910 2909 2909
2928 2925 2922 2919 2917 2915 2912 2911 2909 2907 2906 2904 2903 2902 2902 2901 2900 2900 2900 2900 2900 2900 2899 2899 2899 2899 2899 2900 2900 2901 2901 2901 2902 2902 2902 2902 2902 2902 2901 2901 2901 2901 2901
2920 2917 2914 2911 2908 2906 2904 2902 2900 2898 2896 2895 2894 2893 2891 2891 2890 2890 2890 2890 2890 2890 2889 2889 2890 2890 2890 2891 2891 2892 2892 2892 2892 2893 2893 2893 2893 2893 2893 2893 2894 2894 2893
2913 2909 2906 2903 2901 2898 2895 2893 2891 2889 2887 2885 2884 2883 2882 2881 2880 2880 2880 2880 2880 2880 2880 2880 2880 2881 2881 2882 2882 2882 2883 2883 2884 2884 2884 2884 2885 2885 2885 2885 2885 2884 2884
Wind_Speed
20 22 23 27 30 33 37 39 38 40 39 25 30 32 30 28 25 26 23 21 23 27 31 33 34 34 34 37 36 32 33 27 32 35 42 35 43 34 33 29 31 34 32
18 21 18 21 17 25 28 30 34 34 35 32 31 32 29 27 26 24 21 21 25 31 32 32 33 37 35 41 40 33 33 29 38 34 32 30 31 32 32 34 34 31 30
18 16 21 19 23 20 25 24 25 26 34 26 29 31 30 27 22 22 22 22 27 30 32 31 34 39 40 37 37 34 29 34 33 30 28 31 37 32 34 32 30 33 33
18 23 17 17 19 19 26 27 29 32 42 32 32 31 29 23 22 22 20 22 24 20 14 22 24 20 30 28 25 31 32 37 30 29 27 31 41 40 44 38 38 36 36
15 25 28 25 23 34 38 37 39 37 38 35 32 30 28 23 21 19 19 18 17 15 17 19 21 19 21 24 24 27 38 30 34 26 30 31 34 40 43 44 45 44 42
12 12 18 22 23 22 32 31 31 35 33 32 31 28 25 21 18 18 17 17 18 18 16 17 16 21 14 23 17 26 22 37 34 29 30 37 32 33 37 32 37 39 44
10 9 14 19 17 18 21 31 33 31 31 28 29 27 26 21 17 16 16 17 19 18 13 8 8 18 16 18 18 20 26 27 25 23 29 36 33 33 31 33 31 33 34
11 17 12 8 10 12 14 28 43 37 30 27 26 26 24 18 16 15 16 15 18 16 15 9 8 6 13 15 15 31 29 26 34 25 29 29 28 25 23 26 29 23 25
6 4 7 10 13 14 10 25 30 34 27 27 25 22 19 17 16 15 16 15 18 18 16 16 13 14 8 13 24 22 24 34 39 30 29 30 27 31 28 26 24 28 27
9 9 7 5 5 6 10 18 28 25 25 25 18 18 17 15 14 14 19 20 20 18 21 17 19 21 17 18 23 27 25 26 25 33 29 36 32 32 34 28 30 34 35
15 16 14 10 8 3 5 9 16 18 22 27 23 23 19 20 20 20 18 19 20 25 25 22 27 20 21 20 23 27 27 25 27 29 33 37 38 33 34 34 36 42 45
16 17 17 14 11 9 5 1 3 6 13 16 16 22 24 26 26 27 23 26 25 23 27 31 31 31 28 27 30 29 31 29 29 29 32 35 35 38 40 44 41 40 41
15 15 15 15 14 13 12 9 6 4 4 5 8 13 14 16 19 19 26 29 31 30 30 32 28 31 35 35 33 39 44 42 41 40 44 43 43 41 40 42 35 23 18
13 13 13 13 13 12 10 10 9 7 5 3 2 5 7 8 10 12 14 16 18 21 21 25 29 31 36 35 38 43 44 38 40 42 41 39 34 30 24 19 18 20 21
13 13 12 11 10 10 9 8 6 5 5 4 3 1 2 4 6 8 9 10 11 13 15 17 18 19 19 21 22 23 24 24 22 20 18 16 16 17 19 21 23 23 22
12 12 12 13 12 11 10 9 8 7 5 4 4 4 4 4 4 4 5 6 7 7 8 10 11 12 13 14 14 15 15 16 17 18 18 19 18 18 17 15 15 16 18
12 12 12 11 12 13 13 14 14 12 12 11 11 10 9 10 10 10 11 11 11 11 12 12 13 13 14 15 15 15 14 13 13 12 12 11 12 14 15 17 19 20 22
14 14 14 14 13 14 14 14 14 14 15 15 15 15 15 14 15 15 15 15 15 14 14 14 13 13 13 13 13 13 13 13 13 13 14 15 16 17 19 20 21 22 24
16 17 16 16 16 15 15 15 16 16 17 17 16 17 17 18 18 17 17 16 15 15 15 14 15 14 14 14 15 15 15 16 17 18 19 20 21 21 21 22 23 24 25
18 18 19 20 19 18 18 17 17 17 18 18 19 19 18 17 17 17 17 17 17 17 17 18 18 17 18 17 17 18 18 19 19 20 20 21 21 22 22 23 24 25 26
22 22 22 22 22 23 23 22 21 20 20 20 20 20 20 20 20 20 19 19 19 19 19 19 20 20 20 20 20 19 19 20 20 21 21 22 22 23 24 25 25 26 26
25 25 25 25 25 25 26 26 27 26 25 24 24 23 23 23 24 23 23 22 22 22 22 22 21 21 21 21 21 21 21 21 22 22 23 23 24 24 25 25 26 26 25
28 29 29 28 27 27 27 27 27 27 28 27 27 26 26 26 26 26 26 26 25 25 24 24 24 23 23 23 23 23 23 23 24 24 24 24 24 24 24 24 24 24 23
30 29 29 28 28 28 28 27 27 27 27 27 27 27 27 26 26 26 26 26 26 26 26 26 26 25 25 25 25 24 24 24 24 24 24 23 23 23 23 23 22 22 22
30 30 29 29 28 27 27 26 26 26 26 26 26 26 26 26 26 25 25 25 24 24 24 24 25 25 25 24 24 23 23 23 23 22 22 22 22 22 22 22 22 22 22
30 30 29 29 28 28 27 26 26 25 25 25 25 25 24 24 24 24 24 23 23 23 23 23 23 23 22 22 22 22 22 22 22 21 21 21 21 22 22 22 22 23 23
Wind_Direction
219 217 221 229 237 234 226 218 224 228 238 224 229 228 233 243 254 258 254 251 249 245 245 245 247 249 247 256 254 253 256 252 234 218 232 243 210 210 220 216 219 225 229
217 220 214 222 221 217 212 217 228 229 236 239 225 228 234 241 252 255 253 253 254 251 246 251 251 252 245 252 259 242 250 232 225 236 241 216 207 215 219 221 224 230 231
225 228 232 221 215 217 219 206 220 234 222 232 229 231 234 240 250 252 252 256 260 252 248 254 258 266 253 250 245 243 239 233 230 238 234 220 200 211 213 217 226 236 226
223 241 238 239 239 238 231 237 246 241 223 235 235 229 231 238 245 247 255 262 263 249 252 260 262 252 242 237 234 235 228 214 237 232 218 212 210 216 223 223 224 234 226
232 235 240 241 264 254 252 243 240 228 212 226 227 224 230 233 238 247 253 262 247 236 253 265 268 233 238 223 241 229 209 227 226 218 210 217 211 217 220 227 232 231 241
277 263 229 234 246 262 247 243 204 219 218 224 222 222 226 228 227 239 257 261 245 235 254 274 271 231 235 218 224 227 248 221 226 226 220 206 235 231 232 243 233 228 237
314 310 257 241 273 257 246 225 215 200 213 214 215 213 220 221 224 236 249 251 240 234 250 279 303 235 239 238 229 235 219 227 225 224 231 213 236 238 241 244 242 255 253
302 290 304 244 282 282 253 214 197 198 200 206 209 212 215 213 222 232 251 259 231 224 232 246 257 277 226 243 235 235 244 225 228 232 229 228 234 235 237 240 235 246 234
1 355 316 292 286 276 278 190 207 185 191 205 211 214 214 224 226 226 236 236 230 226 229 238 247 261 250 208 221 232 226 220 236 237 223 236 237 237 246 238 235 245 237
26 41 37 5 320 302 240 189 194 186 191 194 212 221 227 233 236 233 234 234 238 236 227 223 238 242 241 233 242 236 248 245 236 243 243 241 250 235 252 244 237 237 244
33 37 35 24 15 2 264 297 249 224 208 208 208 218 231 239 242 242 243 238 245 243 238 235 239 245 241 241 238 237 239 239 244 242 244 246 248 237 235 242 238 242 244
29 29 29 33 30 26 12 349 270 252 241 242 229 222 234 228 232 230 241 247 259 255 251 242 242 239 243 252 244 249 237 247 240 243 243 238 234 239 245 244 236 234 238
24 16 15 18 22 27 26 21 9 327 300 273 243 240 231 241 243 244 239 238 238 237 239 245 250 244 240 243 245 242 240 242 255 251 249 244 242 247 237 242 245 248 248
17 16 14 13 19 20 24 25 24 11 0 10 261 249 250 238 239 242 245 246 249 250 245 243 243 242 244 245 240 245 245 238 236 236 235 235 231 228 228 226 228 232 236
8 5 2 3 2 6 10 13 12 2 355 353 343 309 235 251 256 252 244 241 241 241 241 239 236 234 234 234 235 234 233 235 235 235 236 239 240 238 239 241 241 245 250
4 358 351 347 342 339 338 335 336 331 326 320 306 295 287 267 249 255 259 256 253 252 253 254 250 243 237 235 234 239 239 237 233 229 226 227 231 237 246 257 268 267 262
357 349 343 337 332 329 327 322 318 314 309 302 298 296 291 286 283 278 273 271 269 266 260 254 248 245 242 238 236 237 240 241 245 250 257 262 263 262 261 261 262 263 262
349 345 340 335 330 324 318 313 307 302 298 295 291 286 281 278 276 274 273 273 271 269 271 272 272 274 273 274 277 280 283 283 284 284 282 275 269 264 260 258 259 262 265
340 338 335 331 326 322 316 310 305 300 296 292 287 281 279 278 275 274 273 271 269 268 269 269 269 270 269 270 269 267 265 264 263 261 259 258 259 260 263 265 269 273 276
331 327 326 325 323 319 315 310 304 299 295 292 289 287 285 282 279 278 278 277 274 269 264 261 260 259 259 258 257 255 253 252 252 253 255 259 263 268 272 275 278 279 281
317 316 314 312 310 308 307 305 302 298 294 290 286 284 282 280 278 275 273 271 269 267 265 263 261 260 259 259 258 258 258 259 260 262 264 267 270 273 275 278 280 282 283
312 309 306 303 301 298 295 293 293 292 289 286 283 281 278 276 276 275 273 271 270 270 269 268 267 266 265 265 265 265 265 266 267 268 270 271 273 275 276 278 280 282 284
311 309 307 305 302 298 294 291 289 287 285 284 282 279 276 274 273 272 271 271 270 269 268 268 268 267 266 265 265 264 265 266 267 268 270 272 273 276 277 279 280 282 284
311 309 307 306 304 301 298 294 290 287 285 283 282 281 279 276 274 272 269 267 265 265 264 265 265 264 264 264 265 265 266 266 267 269 271 272 273 274 275 276 278 278 279
310 310 308 307 305 302 300 297 294 291 288 285 283 280 279 278 276 273 271 269 267 265 263 262 262 262 263 263 264 265 266 266 267 268 269 270 272 273 273 274 275 276 277
309 307 305 303 302 300 299 298 297 295 293 291 289 286 283 280 277 276 274 271 268 266 265 264 263 262 262 262 263 263 264 265 267 267 268 269 271 272 273 275 277 279 280